User: anonymous   Login
Location: Fort Hays State University
(38.8712°N, 99.3432°W)
Time: 15:15:50
(UTC-06:00)
Language:

ALOS - Orbit

View from above orbital plane
View from above orbital plane
View from above satellite
View from above satellite

Ground track
Ground track

The orbit data is extracted from the following two-line orbital elements,

1 28931U 06002A   16343.98407668 +.00000085 +00000-0 +25491-4 0  9994
2 28931 097.8648 014.6562 0001256 125.4366 234.6963 14.62286019579667
Epoch (UTC): 08 December 2016 23:37:04
Eccentricity: 0.0001256
inclination: 97.8648°
perigee height: 685 km
apogee height: 686 km
right ascension of ascending node: 14.6562°
argument of perigee: 125.4366°
revolutions per day: 14.62286019
mean anomaly at epoch: 234.6963°
orbit number at epoch: 57966

The dashed part of the orbit path shows where the satellite is in the earth's shadow,  

DLR